Вернуться в каталог

FENGYUN 1C DEB

АктивенSSO
NORAD 30650·DEBRIS·🇨🇳 China

Запущен May 10, 1999 с Taiyuan Satellite Launch Center

Loading…

Ближайшие Пролёты (ближайшие 24 часа)

TLE

СвежийSource: Space-Track

Эпоха: Sep 14, 2026, 02:43 UTC

1 30650U 99025APH 26257.11381115  .00001647  00000-0  85040-3 0  9990
2 30650  99.1871 310.8425 0072634 135.9107 254.2592 14.15145153  1855

Отслеживайте FENGYUN 1C DEB в реальном времени с AllMySat

Download on the App Store